sat.trackr.live / text

‹ back to catalog

ONEWEB-0299

NORAD 49088 · 2021-075P

PAYLOAD ACTIVE UNKNOWN

§ Identity

Operator
Country
UK
Launch date
2021-08-21
Launch site
TYMSC
Launch vehicle
Mass (kg)
RCS (m²)

Purposes: comms

External: N2YO · Heavens-Above · Gunter

§ Orbital elements

Epoch: 2026-05-25T02:37:03.417312Z

Period
109.29 min
Inclination
87.9163°
Eccentricity
0.0001935
Mean motion
13.17649989 rev/d
Perigee alt
1,192.2 km
Apogee alt
1,195.2 km
Semi-major
7,571.8 km
B*
6.0845e-5
RAAN
10.4350°
Arg perigee
87.8084°
Mean anomaly
272.3269°
Rev number
23,056

§ Raw data

ONEWEB-02991 49088U 21075P   26145.10906733  .00000036  00000+0  60845-4 0  99962 49088  87.9163  10.4350 0001935  87.8084 272.3269 13.17649989230565

JSON: /api/v1/satellites/49088 · /tle

For live sub-satellite position, see the globe view (requires WebGL).

§ Visibility from observer

Set your observer location to see the next 7 days of passes ≥ 10°. The values pass through the URL so the page stays shareable.

No JS? Fill the form by hand. The geolocation button needs JavaScript.